timestamp,wind_dir_avg,wind_spd_avg,wind_spd_max_dir,wind_spd_gust,battery_voltage,lat,long
2023-01-09 00:04:00+00:00,315.0,7.04,306.0,8.19,12.33,47.59359,-54.27349
2023-01-09 00:14:00+00:00,315.0,7.86,322.0,9.11,12.25,47.59359,-54.27349
2023-01-09 00:24:00+00:00,323.0,7.12,327.0,8.17,12.25,47.59359,-54.27349
2023-01-09 00:34:00+00:00,335.0,9.69,336.0,11.3,12.25,47.59359,-54.27349
2023-01-09 00:44:00+00:00,339.0,8.67,336.0,10.23,12.25,47.59359,-54.27349
2023-01-09 00:54:00+00:00,348.0,9.23,349.0,10.7,12.25,47.59359,-54.27349
2023-01-09 01:04:00+00:00,338.0,8.67,342.0,10.28,12.25,47.59359,-54.27349
2023-01-09 01:14:00+00:00,335.0,8.61,337.0,10.75,12.25,47.59359,-54.27349
2023-01-09 01:24:00+00:00,345.0,11.15,346.0,12.71,12.25,47.59359,-54.27349
2023-01-09 01:34:00+00:00,346.0,8.45,345.0,9.88,12.25,47.59359,-54.27349
2023-01-09 01:44:00+00:00,353.0,8.32,341.0,9.56,12.25,47.59359,-54.27349
2023-01-09 01:54:00+00:00,349.0,11.01,337.0,12.66,12.25,47.59359,-54.27349
2023-01-09 02:04:00+00:00,348.0,10.79,334.0,13.21,12.25,47.59359,-54.27349
2023-01-09 02:14:00+00:00,338.0,8.7,329.0,11.19,12.17,47.59359,-54.27349
2023-01-09 02:24:00+00:00,342.0,10.07,337.0,12.63,12.17,47.59359,-54.27349
2023-01-09 02:34:00+00:00,333.0,8.39,337.0,10.07,12.17,47.59359,-54.27349
2023-01-09 02:44:00+00:00,332.0,9.11,331.0,10.02,12.17,47.59359,-54.27349
2023-01-09 02:54:00+00:00,333.0,9.07,336.0,10.53,12.17,47.59359,-54.27349
2023-01-09 03:04:00+00:00,342.0,10.21,333.0,12.58,12.17,47.59359,-54.27349
2023-01-09 03:14:00+00:00,335.0,8.36,331.0,10.14,12.17,47.59359,-54.27349
2023-01-09 03:24:00+00:00,319.0,7.69,325.0,9.46,12.17,47.59359,-54.27349
2023-01-09 03:34:00+00:00,322.0,7.79,324.0,10.03,12.17,47.59359,-54.27349
2023-01-09 03:44:00+00:00,322.0,8.05,323.0,9.87,12.17,47.59359,-54.27349
2023-01-09 03:54:00+00:00,325.0,7.96,322.0,9.58,12.17,47.59359,-54.27349
2023-01-09 04:04:00+00:00,325.0,8.08,326.0,10.66,12.17,47.59359,-54.27349
2023-01-09 04:14:00+00:00,315.0,7.36,312.0,8.51,12.09,47.59359,-54.27349
2023-01-09 04:24:00+00:00,350.0,6.53,318.0,9.07,12.09,47.59359,-54.27349
2023-01-09 04:34:00+00:00,316.0,6.12,323.0,7.99,12.09,47.59359,-54.27349
2023-01-09 04:44:00+00:00,333.0,8.85,335.0,10.51,12.09,47.59359,-54.27349
2023-01-09 04:54:00+00:00,334.0,8.44,329.0,9.89,12.09,47.59359,-54.27349
2023-01-09 05:04:00+00:00,330.0,6.08,311.0,9.04,12.09,47.59359,-54.27349
2023-01-09 05:14:00+00:00,327.0,7.73,328.0,9.04,12.09,47.59359,-54.27349
2023-01-09 05:24:00+00:00,328.0,7.36,323.0,8.75,12.09,47.59359,-54.27349
2023-01-09 05:34:00+00:00,312.0,6.15,312.0,7.39,12.09,47.59359,-54.27349
2023-01-09 05:44:00+00:00,318.0,5.65,314.0,7.47,12.09,47.59359,-54.27349
2023-01-09 05:54:00+00:00,319.0,5.2,306.0,6.74,12.09,47.59359,-54.27349
2023-01-09 06:04:00+00:00,308.0,5.77,310.0,6.99,12.09,47.59359,-54.27349
2023-01-09 06:14:01+00:00,317.0,3.82,306.0,6.6,12.09,47.59359,-54.27349
2023-01-09 06:24:01+00:00,323.0,8.13,321.0,9.69,12.09,47.59359,-54.27349
2023-01-09 06:34:01+00:00,325.0,7.01,323.0,8.18,12.09,47.59359,-54.27349
2023-01-09 06:44:01+00:00,325.0,5.32,326.0,6.6,12.09,47.59359,-54.27349
2023-01-09 06:54:01+00:00,321.0,6.34,312.0,8.37,12.09,47.59359,-54.27349
2023-01-09 07:04:01+00:00,307.0,5.6,304.0,7.02,12.09,47.59359,-54.27349
2023-01-09 07:14:00+00:00,304.0,6.39,306.0,7.74,12.01,47.59359,-54.27349
2023-01-09 07:24:00+00:00,304.0,7.24,309.0,8.73,12.01,47.59359,-54.27349
2023-01-09 07:34:00+00:00,302.0,8.37,298.0,9.8,12.01,47.59359,-54.27349
2023-01-09 07:44:00+00:00,297.0,8.69,298.0,10.14,12.01,47.59359,-54.27349
2023-01-09 07:54:00+00:00,300.0,8.31,308.0,9.62,12.01,47.59359,-54.27349
2023-01-09 08:04:00+00:00,302.0,8.41,307.0,9.48,12.01,47.59359,-54.27349
2023-01-09 08:14:00+00:00,299.0,7.67,307.0,8.89,12.01,47.59359,-54.27349
2023-01-09 08:24:00+00:00,300.0,8.5,307.0,9.6,12.01,47.59359,-54.27349
2023-01-09 08:34:00+00:00,287.0,8.86,287.0,10.34,12.01,47.59359,-54.27349
2023-01-09 08:44:00+00:00,282.0,6.42,284.0,7.93,12.01,47.59359,-54.27349
2023-01-09 08:54:00+00:00,279.0,7.3,291.0,8.64,12.01,47.59359,-54.27349
2023-01-09 09:04:00+00:00,277.0,6.56,284.0,8.1,12.01,47.59359,-54.27349
2023-01-09 09:14:00+00:00,271.0,6.53,272.0,7.91,12.01,47.59359,-54.27349
2023-01-09 09:24:00+00:00,258.0,6.21,258.0,7.56,12.01,47.59359,-54.27349
2023-01-09 09:34:00+00:00,273.0,5.92,272.0,7.13,12.01,47.59359,-54.27349
2023-01-09 09:44:00+00:00,273.0,6.89,273.0,7.94,12.01,47.59359,-54.27349
2023-01-09 09:54:00+00:00,276.0,8.26,280.0,10.14,12.01,47.59359,-54.27349
2023-01-09 10:04:00+00:00,260.0,6.96,264.0,9.03,12.01,47.59359,-54.27349
2023-01-09 10:14:00+00:00,266.0,7.56,262.0,8.05,12.01,47.59359,-54.27349
2023-01-09 10:24:00+00:00,258.0,7.98,264.0,9.31,12.01,47.59359,-54.27349
2023-01-09 10:34:00+00:00,255.0,5.35,257.0,6.94,12.01,47.59359,-54.27349
2023-01-09 10:44:00+00:00,265.0,7.73,263.0,8.49,12.01,47.59359,-54.27349
2023-01-09 10:54:00+00:00,278.0,6.57,284.0,7.94,12.01,47.59359,-54.27349
2023-01-09 11:04:00+00:00,253.0,5.25,259.0,7.73,12.01,47.59359,-54.27349
2023-01-09 11:14:00+00:00,268.0,3.94,270.0,5.07,12.01,47.59359,-54.27349
2023-01-09 11:24:00+00:00,264.0,4.1,265.0,6.61,12.01,47.59359,-54.27349
2023-01-09 11:34:00+00:00,231.0,3.33,235.0,5.63,12.01,47.59359,-54.27349
2023-01-09 11:44:00+00:00,212.0,4.22,229.0,5.93,12.01,47.59359,-54.27349
2023-01-09 11:54:00+00:00,216.0,4.29,201.0,6.39,12.01,47.59359,-54.27349
2023-01-09 12:04:00+00:00,220.0,3.98,233.0,5.84,12.01,47.59359,-54.27349
2023-01-09 13:14:00+00:00,229.0,8.82,231.0,11.56,12.41,47.59359,-54.27349
2023-01-09 13:24:00+00:00,225.0,9.36,229.0,12.11,12.41,47.59359,-54.27349
2023-01-09 13:34:00+00:00,227.0,9.17,247.0,13.03,12.41,47.59359,-54.27349
2023-01-09 13:44:00+00:00,234.0,13.71,231.0,16.26,12.41,47.59359,-54.27349
2023-01-09 13:54:00+00:00,241.0,12.88,240.0,14.99,12.41,47.59359,-54.27349
2023-01-09 14:04:00+00:00,234.0,11.28,231.0,13.0,12.41,47.59359,-54.27349
2023-01-09 14:14:00+00:00,233.0,12.62,235.0,16.93,13.21,47.59359,-54.27349
2023-01-09 14:24:00+00:00,236.0,11.59,244.0,14.65,13.21,47.59359,-54.27349
2023-01-09 14:34:00+00:00,231.0,13.48,224.0,15.72,13.21,47.59359,-54.27349
2023-01-09 14:44:00+00:00,228.0,12.42,230.0,14.53,13.21,47.59359,-54.27349
2023-01-09 14:54:00+00:00,232.0,12.39,229.0,15.95,13.21,47.59359,-54.27349
2023-01-09 15:04:00+00:00,237.0,13.3,237.0,14.87,13.21,47.59359,-54.27349
2023-01-09 15:14:00+00:00,233.0,13.75,238.0,15.55,13.05,47.59359,-54.27349
2023-01-09 15:24:00+00:00,232.0,13.95,234.0,16.58,13.05,47.59359,-54.27349
2023-01-09 15:34:00+00:00,234.0,11.96,237.0,13.59,13.05,47.59359,-54.27349
2023-01-09 15:44:00+00:00,240.0,13.58,240.0,17.0,13.05,47.59359,-54.27349
2023-01-09 15:54:00+00:00,249.0,12.82,243.0,14.42,13.05,47.59359,-54.27349
2023-01-09 16:04:00+00:00,251.0,11.98,254.0,13.55,13.05,47.59359,-54.27349
2023-01-09 17:14:01+00:00,242.0,10.68,236.0,14.73,12.89,47.59359,-54.27349
2023-01-09 17:24:01+00:00,245.0,9.98,245.0,12.22,12.89,47.59359,-54.27349
2023-01-09 17:34:01+00:00,243.0,10.45,237.0,13.64,12.89,47.59359,-54.27349
2023-01-09 17:44:01+00:00,247.0,12.0,256.0,15.07,12.89,47.59359,-54.27349
2023-01-09 17:54:01+00:00,248.0,13.07,248.0,16.48,12.89,47.59359,-54.27349
2023-01-09 18:04:01+00:00,255.0,10.03,250.0,12.4,12.89,47.59359,-54.27349
2023-01-09 18:14:00+00:00,251.0,12.96,258.0,18.02,13.05,47.59359,-54.27349
2023-01-09 18:24:00+00:00,260.0,14.32,267.0,18.27,13.05,47.59359,-54.27349
2023-01-09 18:34:00+00:00,257.0,11.24,262.0,15.19,13.05,47.59359,-54.27349
2023-01-09 18:44:00+00:00,266.0,11.89,266.0,17.32,13.05,47.59359,-54.27349
2023-01-09 18:54:00+00:00,258.0,12.1,261.0,14.59,13.05,47.59359,-54.27349
2023-01-09 19:04:00+00:00,261.0,9.4,264.0,11.46,13.05,47.59359,-54.27349
2023-01-09 19:14:00+00:00,259.0,10.91,257.0,12.35,12.73,47.59359,-54.27349
2023-01-09 19:24:00+00:00,256.0,9.89,262.0,11.8,12.73,47.59359,-54.27349
2023-01-09 19:34:00+00:00,255.0,9.43,259.0,10.87,12.73,47.59359,-54.27349
2023-01-09 19:44:00+00:00,269.0,9.58,277.0,11.41,12.73,47.59359,-54.27349
2023-01-09 19:54:00+00:00,263.0,11.48,264.0,12.89,12.73,47.59359,-54.27349
2023-01-09 20:04:00+00:00,261.0,11.16,261.0,12.18,12.73,47.59359,-54.27349
2023-01-09 20:14:00+00:00,271.0,10.78,274.0,12.17,12.49,47.59359,-54.27349
2023-01-09 20:24:00+00:00,262.0,9.96,269.0,11.44,12.49,47.59359,-54.27349
2023-01-09 20:34:00+00:00,263.0,12.03,270.0,14.58,12.49,47.59359,-54.27349
2023-01-09 20:44:00+00:00,269.0,9.0,269.0,9.79,12.49,47.59359,-54.27349
2023-01-09 20:54:00+00:00,278.0,8.89,283.0,9.88,12.49,47.59359,-54.27349
2023-01-09 21:04:00+00:00,276.0,7.29,278.0,9.34,12.49,47.59359,-54.27349
2023-01-09 21:14:00+00:00,288.0,7.65,296.0,10.45,12.41,47.59359,-54.27349
2023-01-09 21:24:00+00:00,292.0,9.19,292.0,11.17,12.41,47.59359,-54.27349
2023-01-09 21:34:00+00:00,303.0,10.68,304.0,12.21,12.41,47.59359,-54.27349
2023-01-09 21:44:00+00:00,289.0,9.1,288.0,10.58,12.41,47.59359,-54.27349
2023-01-09 21:54:00+00:00,287.0,6.72,287.0,7.55,12.41,47.59359,-54.27349
2023-01-09 22:04:00+00:00,299.0,5.33,290.0,6.63,12.41,47.59359,-54.27349
2023-01-09 22:14:00+00:00,280.0,6.79,290.0,8.69,12.41,47.59359,-54.27349
2023-01-09 22:24:00+00:00,283.0,8.12,276.0,9.65,12.41,47.59359,-54.27349
2023-01-09 22:34:00+00:00,280.0,7.34,281.0,9.17,12.41,47.59359,-54.27349
2023-01-09 22:44:00+00:00,276.0,7.66,281.0,9.22,12.41,47.59359,-54.27349
2023-01-09 22:54:00+00:00,270.0,7.35,278.0,8.64,12.41,47.59359,-54.27349
2023-01-09 23:04:00+00:00,277.0,6.09,271.0,7.26,12.41,47.59359,-54.27349
2023-01-09 23:14:00+00:00,286.0,5.81,282.0,7.23,12.33,47.59359,-54.27349
2023-01-09 23:24:00+00:00,272.0,4.59,287.0,6.07,12.33,47.59359,-54.27349
2023-01-09 23:34:00+00:00,290.0,5.99,293.0,6.75,12.33,47.59359,-54.27349
2023-01-09 23:44:00+00:00,297.0,5.76,300.0,6.74,12.33,47.59359,-54.27349
2023-01-09 23:54:00+00:00,295.0,5.77,290.0,8.02,12.33,47.59359,-54.27349
